Regional Weather Roundup
Issued by NWS

Home | Current Version | Previous Version | Text Only | Print | Product List | Glossary On
Versions: 1 2 3 4 5 6 7 8 9 10 11 12 13 14 15 16 17 18 19 20 21 22 23 24 25 26 27 28 29 30 31 32 33 34 35 36 37 38 39 40 41 42 43 44 45 46 47 48 49 50
000
ASUS43 KMKX 240821
RWRWI

WISCONSIN REGIONAL WEATHER ROUNDUP
NATIONAL WEATHER SERVICE MILWAUKEE/SULLIVAN WI
300 AM CDT TUE MAY 24 2016

NOTE: "FAIR" INDICATES FEW OR NO CLOUDS BELOW 12,000 FEET WITH NO
SIGNIFICANT WEATHER AND/OR OBSTRUCTIONS TO VISIBILITY.

WIZ001-002-006>008-014>016-023>028-240900-
NORTHWEST WISCONSIN

CITY           SKY/WX    TMP DP  RH WIND       PRES   REMARKS
SUPERIOR ARPT  CLOUDY    58  58 100 NE5       29.79R
ASHLAND        CLOUDY    59  59 100 CALM      29.82R
HAYWARD        CLOUDY    59  57  93 CALM      29.83F FOG
SIREN          CLOUDY    60  59  96 SE3       29.80F
CUMBERLAND     CLOUDY    61  55  82 CALM      29.82S
RICE LAKE      CLOUDY    63  58  85 CALM      29.84R
CHETEK         CLOUDY    61  61  99 SE9       29.84R
LADYSMITH      CLOUDY    64  61  91 SE6       29.86R
EAU CLAIRE     CLOUDY    64  61  90 S6        29.84S
MENOMONIE      PTCLDY    63  63  99 SE7       29.83R
NEW RICHMOND   PTCLDY    61  60  96 SE3       29.82S
OSCEOLA        CLOUDY    63  63 100 CALM      29.83S
$$

WIZ003>005-009-010-017-018-240900-
NORTH CENTRAL WISCONSIN

CITY           SKY/WX    TMP DP  RH WIND       PRES   REMARKS
MANITOWISH WTR CLOUDY    60  60 100 CALM      29.86S
ARBOR VITAE    MOCLDY    63  59  86 S5        29.86F
WOODRUFF       MOCLDY    63  59  86 S5        29.86F
RHINELANDER    LGT RAIN  61  54  77 W5        29.88S
EAGLE RIVER    LGT RAIN  62  47  57 CALM      29.87R
LAND O LAKES   CLOUDY    58  56  92 CALM      29.87S
PHILLIPS       CLOUDY    62  60  94 S6        29.85S
TOMAHAWK       RAIN      60  57  91 CALM      29.88F
MEDFORD        TSTM      61  61 100 CALM      29.87S
MERRILL        CLOUDY    59  53  78 CALM      29.87F
$$

WIZ029-030-035-036-043>047-240900-
CENTRAL WISCONSIN

CITY           SKY/WX    TMP DP  RH WIND       PRES   REMARKS
WAUSAU         MOCLDY    64  51  62 CALM      29.86S
MOSINEE        MOCLDY    59  50  72 CALM      29.89S
MARSHFIELD     LGT RAIN  62  56  80 SE3       29.88R
STEVENS POINT  MOCLDY    58  48  70 CALM      29.89S
WAUPACA        CLEAR     55  49  80 CALM      29.90S
WAUTOMA        CLEAR     52  49  89 CALM      29.89S
WISC RAPIDS    MOCLDY    60  48  64 CALM      29.89R
CAMP DOUGLAS   CLOUDY    60  58  91 SE2       29.87S
$$

WIZ011>013-019>022-031-037>040-048>050-240900-
NORTHEAST WISCONSIN

CITY           SKY/WX    TMP DP  RH WIND       PRES   REMARKS
ANTIGO         CLOUDY    58  49  71 CALM      29.90R
SHAWANO        MOCLDY    62  49  61 CALM      29.88F
OCONTO         MOCLDY    54  49  83 CALM      29.87R
STURGEON BAY   NOT AVBL
GREEN BAY      CLEAR     62  42  47 S8        29.89R
MANITOWOC      CLEAR     53  45  74 SE3       29.90F
APPLETON       CLEAR     59  43  55 S5        29.88S
CLINTONVILLE   CLOUDY    55  50  82 S5        29.89R
OSHKOSH        CLEAR     61  44  53 S10       29.89S
$$

WIZ032>034-041-042-053>061-240900-
SOUTHWEST WISCONSIN

CITY           SKY/WX    TMP DP  RH WIND       PRES   REMARKS
LA CROSSE      CLOUDY    68  58  70 SE7       29.84S
SPARTA         CLOUDY    62  56  81 CALM      29.86S
VIROQUA        CLOUDY    67  49  51 S6        29.88S
BOSCOBEL       CLOUDY    58  52  80 CALM      29.87F
PRAIRIE DU CHI MOCLDY    69  49  48 CALM      29.86F
PLATTEVILLE    PTCLDY    64  49  59 S6        29.90F
$$

WIZ056-057-062-063-064-067-068-240900-
SOUTH CENTRAL WISCONSIN

CITY           SKY/WX    TMP DP  RH WIND       PRES   REMARKS
REEDSBURG      PTCLDY    63  48  58 CALM      29.89S
BARABOO/DELLS  PTCLDY    64  46  51 SW7       29.89S
LONE ROCK      PTCLDY    55  50  83 E3        29.89F
MINERAL POINT  PTCLDY    64  46  52 S8        29.91S
MADISON        CLOUDY    60  49  66 S3        29.91R
MIDDLETON      CLOUDY    57  48  73 CALM      29.91S
WATERTOWN      CLEAR     55  45  69 CALM      29.91S
MONROE         CLOUDY    63  46  55 SW10      29.92S
JANESVILLE     CLOUDY    61  46  59 CALM      29.92R
$$

WIZ051-052-058>065-066-070>072-240900-
SOUTHEAST WISCONSIN

CITY           SKY/WX    TMP DP  RH WIND       PRES   REMARKS
MILWAUKEE      PTCLDY    60  41  49 SW6       29.92S
WAUKESHA       CLEAR     59  37  44 S6        29.94R
MILWAUKEE/TIMM CLEAR     59  36  41 CALM      29.92S
RACINE         CLEAR     58  43  57 SW7       29.94S
BURLINGTON     CLEAR     51  45  81 CALM      29.93S
KENOSHA        PTCLDY    60  43  53 SW6       29.93S
FOND DU LAC    CLEAR     61  42  49 S8        29.90S
SHEBOYGAN      CLEAR     52  42  69 CALM      29.91S
WEST BEND      CLEAR     54  39  58 CALM      29.92S
JUNEAU         CLEAR     60  44  55 S5        29.93R
$$

LSZ147-162-240900-
LAKE SUPERIOR

STATION/POSITION TIME  TEMP    WIND        PRES    WAVE
                       AIR SEA DIR/SP/G            HT/PER
                 (UTC) (F)     (DEG/KT/KT) (MB)    (FT/S)
W MID LAKE BUOY  0750   44 38  220/ 12/ 14 1009.5R   1
DEVILS ISLAND    0800   52     310/ 11/ 12 1010.4R
PORT WING        0700          190/  3/ 11 1009.5
SAXON HARBOR     0700   61     170/  4/  8 1008.8F
$$

LMZ867-665-643>646-240900-
LAKE MICHIGAN

STATION/POSITION TIME  TEMP    WIND        PRES    WAVE
                       AIR SEA DIR/SP/G            HT/PER
                 (UTC) (F)     (DEG/KT/KT) (MB)    (FT/S)
CHAMBERS ISLAND  0700   64     160/  7/ 14 1011.5
N MID LAKE BUOY  0750   48 44  200/ 12/ 14 1011.6F   2/ 4
NORTHPORT PIER   0700   60     170/  7/ 13 1011.9S
SISTER BAY       0720   63     180/ 16/ 19   N/A
ALGOMA LAKESHORE 0701          210/ 13/ 14   N/A
KEWAUNEE LAKESHO 0800   53     170/  9/  9 1011.6F
SHEBOYGAN LAKESH 0800   56     180/  8/  9 1013.1F
PORT WASHINGTON  0700   56      CALM  /  3 1013.5
S MID LAKE BUOY  0750   54 48  170/ 10/ 12 1013.8R   1
KENOSHA   LAKESH 0800   60     200/  7/  8 1013.5R
$$

TC  - TEMPERATURE IN CELSIUS
VSB - VISIBILITY IN STATUTE MILES
WCI - WIND CHILL INDEX
HX  - HEAT INDEX




USA.gov is the U.S. government's official web portal to all federal, state and local government web resources and services.